TimeAKST,TemperatureF,Dew PointF,Humidity,Sea Level PressureIn,VisibilityMPH,Wind Direction,Wind SpeedMPH,Gust SpeedMPH,PrecipitationIn,Events,Conditions,WindDirDegrees,DateUTC
12:00 AM,32.0,30.2,93,29.10,1.8,NNE,4.6,-,N/A,,Overcast,30,2013-02-22 09:00:00
12:06 AM,32.0,30.2,93,29.10,1.2,NE,4.6,-,N/A,,Overcast,40,2013-02-22 09:06:00
12:10 AM,32.0,30.2,93,29.10,2.0,NE,4.6,-,N/A,,Overcast,40,2013-02-22 09:10:00
12:19 AM,32.0,30.2,93,29.09,8.0,Calm,Calm,-,N/A,,Mostly Cloudy,0,2013-02-22 09:19:00
12:53 AM,32.0,30.9,96,29.07,10.0,Calm,Calm,-,N/A,,Mostly Cloudy,0,2013-02-22 09:53:00
1:53 AM,32.0,30.0,92,29.03,10.0,Calm,Calm,-,N/A,,Mostly Cloudy,0,2013-02-22 10:53:00
3:53 AM,33.1,30.9,92,29.00,10.0,Calm,Calm,-,N/A,,Overcast,0,2013-02-22 12:53:00
4:53 AM,33.1,30.0,89,28.99,10.0,Calm,Calm,-,N/A,,Overcast,0,2013-02-22 13:53:00
5:53 AM,36.0,26.1,67,28.98,10.0,North,12.7,18.4,N/A,,Overcast,10,2013-02-22 14:53:00
6:53 AM,36.0,25.0,64,29.00,10.0,NNE,9.2,-,N/A,,Overcast,20,2013-02-22 15:53:00
7:53 AM,37.0,23.0,57,29.01,10.0,North,8.1,17.3,N/A,,Partly Cloudy,10,2013-02-22 16:53:00
8:53 AM,37.0,25.0,62,29.05,-9999.0,Variable,5.8,-,0.01,,Overcast,0,2013-02-22 17:53:00
9:53 AM,37.0,25.0,62,29.07,-9999.0,Calm,Calm,-,N/A,,Overcast,0,2013-02-22 18:53:00
10:53 AM,37.0,26.1,65,29.09,10.0,Calm,Calm,-,N/A,,Overcast,0,2013-02-22 19:53:00
11:53 AM,39.9,25.0,55,29.11,10.0,Calm,Calm,-,N/A,,Scattered Clouds,0,2013-02-22 20:53:00
12:53 PM,41.0,25.0,53,29.14,10.0,ENE,10.4,-,N/A,,Overcast,60,2013-02-22 21:53:00
1:53 PM,39.9,24.1,53,29.16,10.0,NNE,4.6,-,N/A,,Overcast,20,2013-02-22 22:53:00
2:53 PM,39.9,24.1,53,29.20,10.0,Variable,3.5,-,N/A,,Overcast,0,2013-02-22 23:53:00
3:53 PM,37.9,30.0,73,29.24,10.0,SSW,11.5,-,N/A,,Overcast,210,2013-02-23 00:53:00
4:53 PM,37.0,30.0,76,29.27,10.0,SSW,9.2,-,N/A,,Overcast,200,2013-02-23 01:53:00
5:53 PM,36.0,30.0,79,29.31,10.0,Variable,3.5,-,N/A,,Overcast,0,2013-02-23 02:53:00
6:53 PM,35.1,30.0,82,29.35,10.0,Calm,Calm,-,N/A,,Mostly Cloudy,0,2013-02-23 03:53:00
7:53 PM,33.1,28.9,85,29.37,10.0,Calm,Calm,-,N/A,,Overcast,0,2013-02-23 04:53:00
8:53 PM,33.1,28.9,85,29.42,10.0,Calm,Calm,-,N/A,,Overcast,0,2013-02-23 05:53:00
9:53 PM,35.1,30.0,82,29.46,10.0,SW,11.5,-,N/A,,Overcast,230,2013-02-23 06:53:00
10:37 PM,35.6,30.2,81,29.48,10.0,WSW,10.4,-,N/A,,Overcast,240,2013-02-23 07:37:00
10:53 PM,35.1,30.9,85,29.49,10.0,NW,4.6,-,N/A,,Overcast,320,2013-02-23 07:53:00
11:11 PM,35.6,32.0,87,29.50,10.0,Calm,Calm,-,N/A,,Overcast,0,2013-02-23 08:11:00
11:53 PM,35.1,32.0,89,29.52,10.0,Calm,Calm,-,N/A,,Overcast,0,2013-02-23 08:53:00